Perturbed ephemeris below is based on elements from CCO 14. Epoch = 2454280.50000 TT T = 2454280.85938 TT Peri. = 132.06733 a = 3.1583849 AU Node = 160.18540 J2000.0 e = 0.1635761 Incl. = 1.38614 q = 2.6417487 AU
H = 15.5 G = 0.15